Monroe, LA

3:22 AM CDT on March 27, 2017 (GMT -0500)
Monroe Regional

Weather History for KMLU - November, 2013

Change the Weather History Date:

Saturday, November 9, 2013

  Actual Average Record
Temperature  
Mean Temperature 52 °F 59 °F  
Max Temperature 57 °F 71 °F 87 °F (1934)
Min Temperature 46 °F 46 °F 25 °F (1961)
Degree Days  
Heating Degree Days 13 7  
Month to date heating degree days 73 58  
Since 1 July heating degree days 139 148  
Cooling Degree Days 0 1  
Month to date cooling degree days 3 11  
Year to date cooling degree days 2423 2495  
Growing Degree Days 2 (Base 50)    
Moisture  
Dew Point 48 °F    
Average Humidity 84    
Maximum Humidity 96    
Minimum Humidity 72    
Precipitation  
Precipitation 0.18 in 0.15 in 2.20 in (1952)
Month to date precipitation 0.59 1.33  
Year to date precipitation 42.74 45.22  
Snow  
Snow 0.00 in - - ()
Month to date snowfall 0.0  
Since 1 July snowfall 0.0  
Since 1 September snowfall 0.0  
Snow Depth 0.00 in    
Sea Level Pressure  
Sea Level Pressure 30.26 in    
Wind  
Wind Speed 1 mph (NNE)    
Max Wind Speed 6 mph    
Max Gust Speed 8 mph    
Visibility 9 miles    
Events Rain    
T = Trace of Precipitation, MM = Missing Value Source: NWS Daily Summary

Daily Weather History Graph

Daily Weather History Graph

Search for Another Location

Airport or City:

Trip Planner

Search our weather history database for the weather conditions in past years. The results will help you decide how hot, cold, wet, or windy it might be!

Date:

Astronomy

Nov. 09, 2013 Rise Set
Actual Time 6:32 AM CST 5:10 PM CST
Civil Twilight 6:06 AM CST 5:36 PM CST
Nautical Twilight 5:37 AM CST 6:06 PM CST
Astronomical Twilight 5:08 AM CST 6:35 PM CST
Moon 12:13 PM CST (11/9) 11:36 PM CST (11/9)
Length of Visible Light 11h 29m
Length of Day
10h 38m
Waxing Crescent, 44% of the Moon is Illuminated
Nov 9
Waxing Crescent
Nov 9
First Quarter
Nov 17
Full
Nov 25
Last Quarter
Dec 2
New

Hourly Weather History & Observations

Time (CST) Temp. Dew Point Humidity Pressure Visibility Wind Dir Wind Speed Gust Speed Precip Events Conditions
12:53 AM 46.0 °F 44.1 °F 93% 30.22 in 10.0 mi Calm Calm - N/A   Clear
1:53 AM 46.9 °F 45.0 °F 93% 30.22 in 10.0 mi Calm Calm - N/A   Clear
2:53 AM 46.9 °F 45.0 °F 93% 30.23 in 10.0 mi Calm Calm - N/A   Clear
3:53 AM 48.0 °F 46.0 °F 93% 30.23 in 10.0 mi Calm Calm - N/A   Clear
4:53 AM 48.0 °F 46.0 °F 93% 30.23 in 10.0 mi Calm Calm - N/A   Clear
5:53 AM 48.9 °F 46.0 °F 90% 30.25 in 10.0 mi Calm Calm - N/A   Clear
6:53 AM 48.9 °F 46.9 °F 93% 30.27 in 10.0 mi Calm Calm - N/A   Clear
7:53 AM 51.1 °F 46.9 °F 86% 30.28 in 10.0 mi Calm Calm - N/A   Clear
8:53 AM 52.0 °F 46.9 °F 83% 30.29 in 10.0 mi Calm Calm - N/A   Partly Cloudy
9:53 AM 55.9 °F 46.9 °F 72% 30.29 in 10.0 mi Calm Calm - N/A   Clear
10:53 AM 57.0 °F 46.0 °F 67% 30.29 in 10.0 mi Calm Calm - 0.00 in Rain Light Rain
11:53 AM 55.9 °F 46.9 °F 72% 30.26 in 10.0 mi Calm Calm - 0.01 in Rain Light Rain
12:53 PM 57.0 °F 46.9 °F 69% 30.25 in 10.0 mi Calm Calm - 0.00 in   Overcast
1:53 PM 55.0 °F 48.0 °F 77% 30.25 in 5.0 mi West 3.5 mph - 0.02 in Rain Light Rain
2:53 PM 55.0 °F 50.0 °F 83% 30.23 in 10.0 mi NNW 4.6 mph - 0.04 in Rain Light Rain
3:53 PM 54.0 °F 48.9 °F 83% 30.24 in 5.0 mi Calm Calm - 0.03 in Rain Light Rain
4:53 PM 52.0 °F 50.0 °F 93% 30.24 in 6.0 mi Calm Calm - 0.06 in Rain Light Rain
5:53 PM 52.0 °F 50.0 °F 93% 30.26 in 10.0 mi Calm Calm - 0.01 in Rain Light Rain
6:53 PM 52.0 °F 50.0 °F 93% 30.27 in 7.0 mi Calm Calm - 0.00 in   Overcast
7:53 PM 51.1 °F 48.0 °F 89% 30.28 in 10.0 mi NE 4.6 mph - N/A   Overcast
8:53 PM 52.0 °F 48.9 °F 89% 30.28 in 10.0 mi Calm Calm - N/A   Overcast
9:53 PM 52.0 °F 48.9 °F 89% 30.28 in 10.0 mi NE 4.6 mph - 0.01 in   Overcast
10:53 PM 52.0 °F 48.9 °F 89% 30.28 in 10.0 mi East 3.5 mph - N/A   Mostly Cloudy
11:53 PM 52.0 °F 50.0 °F 93% 30.27 in 10.0 mi NE 4.6 mph - N/A   Overcast